20040111,000006,449828,32.413333,-119.955667,13.871,33.055,NaN,NaN
20040111,000036,449858,32.413167,-119.955500,13.878,33.053,NaN,NaN
20040111,000106,449888,32.413000,-119.955500,13.878,33.052,NaN,NaN
20040111,000136,449918,32.412833,-119.955500,13.890,33.050,NaN,NaN
20040111,000206,449948,32.412667,-119.955667,13.900,33.049,NaN,NaN
20040111,000236,449978,32.412500,-119.955833,13.902,33.050,NaN,NaN
20040111,000306,450008,32.412500,-119.956000,13.898,33.052,NaN,NaN
20040111,000336,450038,32.412333,-119.956167,13.891,33.054,NaN,NaN
20040111,000406,450068,32.412333,-119.956167,13.887,33.056,NaN,NaN
20040111,000436,450098,32.412333,-119.956333,13.885,33.058,NaN,NaN
20040111,000506,450128,32.412333,-119.956500,13.884,33.059,NaN,NaN
20040111,000536,450158,32.412333,-119.956667,13.883,33.061,NaN,NaN
20040111,000605,450187,32.412167,-119.956833,13.885,33.061,NaN,NaN
20040111,000635,450217,32.412167,-119.957000,13.888,33.061,NaN,NaN
20040111,000705,450247,32.412167,-119.957167,13.880,33.064,NaN,NaN
20040111,000735,450277,32.412167,-119.957333,13.883,33.064,NaN,NaN
20040111,000805,450307,32.412167,-119.957500,13.883,33.065,NaN,NaN
20040111,000835,450337,32.412000,-119.957833,13.881,33.066,NaN,NaN
20040111,000905,450367,32.412000,-119.958000,13.875,33.065,NaN,NaN
20040111,000935,450397,32.411833,-119.958167,13.870,33.066,NaN,NaN
20040111,001005,450427,32.411833,-119.958333,13.871,33.066,NaN,NaN
20040111,001035,450457,32.411667,-119.958500,13.867,33.066,NaN,NaN
20040111,001105,450487,32.411667,-119.958667,13.865,33.066,NaN,NaN
20040111,001135,450517,32.411500,-119.958833,13.864,33.068,NaN,NaN
20040111,001205,450547,32.411500,-119.959000,13.867,33.068,NaN,NaN
20040111,001235,450577,32.411500,-119.959167,13.865,33.069,NaN,NaN
20040111,001305,450607,32.411333,-119.959500,13.862,33.071,NaN,NaN
20040111,001335,450637,32.411333,-119.959667,13.860,33.071,NaN,NaN
20040111,001405,450667,32.411333,-119.959833,13.860,33.071,NaN,NaN
20040111,001435,450697,32.411333,-119.960000,13.861,33.072,NaN,NaN
20040111,001505,450727,32.411167,-119.960167,13.853,33.073,NaN,NaN
20040111,001535,450757,32.411167,-119.960333,13.852,33.073,NaN,NaN
20040111,001605,450787,32.411333,-119.960500,13.848,33.074,NaN,NaN
20040111,001635,450817,32.411333,-119.960667,13.849,33.074,NaN,NaN
20040111,001705,450847,32.411333,-119.960833,13.844,33.075,NaN,NaN
20040111,001735,450877,32.411333,-119.961000,13.835,33.075,NaN,NaN
20040111,001805,450907,32.411500,-119.961167,13.832,33.076,NaN,NaN
20040111,001835,450937,32.411500,-119.961333,13.829,33.075,NaN,NaN
20040111,001905,450967,32.411500,-119.961500,13.827,33.075,NaN,NaN
20040111,001935,450997,32.411500,-119.961667,13.826,33.076,NaN,NaN
20040111,002005,451027,32.411500,-119.961833,13.827,33.075,NaN,NaN
20040111,002035,451057,32.411500,-119.962000,13.828,33.075,NaN,NaN
20040111,002105,451087,32.411500,-119.962167,13.829,33.075,NaN,NaN
20040111,002135,451117,32.411500,-119.962500,13.830,33.075,NaN,NaN
20040111,002205,451147,32.411500,-119.962667,13.838,33.074,NaN,NaN
20040111,002235,451177,32.411500,-119.963000,13.840,33.075,NaN,NaN
20040111,002305,451207,32.411500,-119.963333,13.840,33.075,NaN,NaN
20040111,002335,451237,32.411500,-119.963667,13.838,33.075,NaN,NaN
20040111,002405,451267,32.411500,-119.964000,13.830,33.077,NaN,NaN
20040111,002435,451297,32.411667,-119.964333,13.826,33.075,NaN,NaN
20040111,002505,451327,32.411667,-119.964500,13.826,33.075,NaN,NaN
20040111,002535,451357,32.411667,-119.964833,13.825,33.074,NaN,NaN
20040111,002605,451387,32.411667,-119.965000,13.825,33.075,NaN,NaN
20040111,002635,451417,32.411667,-119.965333,13.825,33.075,NaN,NaN
20040111,002705,451447,32.411667,-119.965333,13.823,33.075,NaN,NaN
20040111,002735,451477,32.411667,-119.965667,13.825,33.076,NaN,NaN
20040111,002805,451507,32.411667,-119.965833,13.823,33.077,NaN,NaN
20040111,002835,451537,32.411667,-119.966000,13.819,33.076,NaN,NaN
20040111,002905,451567,32.411667,-119.966167,13.818,33.076,NaN,NaN
20040111,002935,451597,32.411667,-119.966333,13.813,33.077,NaN,NaN
20040111,003005,451627,32.411667,-119.966500,13.814,33.077,NaN,NaN
20040111,003035,451657,32.411667,-119.966667,13.816,33.076,NaN,NaN
20040111,003105,451687,32.411667,-119.966833,13.819,33.077,NaN,NaN
20040111,003135,451717,32.411667,-119.967000,13.823,33.078,NaN,NaN
20040111,003205,451747,32.411667,-119.967333,13.828,33.080,NaN,NaN
20040111,003235,451777,32.411667,-119.967500,13.840,33.083,NaN,NaN
20040111,003305,451807,32.411667,-119.967833,13.846,33.085,NaN,NaN
20040111,003335,451837,32.411667,-119.968000,13.856,33.088,NaN,NaN
20040111,003405,451867,32.411667,-119.968167,13.862,33.091,NaN,NaN
20040111,003435,451897,32.411833,-119.968500,13.865,33.093,NaN,NaN
20040111,003505,451927,32.411833,-119.968667,13.865,33.095,NaN,NaN
20040111,003535,451957,32.411833,-119.968833,13.870,33.095,NaN,NaN
20040111,003605,451987,32.411833,-119.969167,13.876,33.097,NaN,NaN
20040111,003635,452017,32.411833,-119.969333,13.876,33.098,NaN,NaN
20040111,003705,452047,32.411833,-119.969500,13.873,33.099,NaN,NaN
20040111,003735,452077,32.411833,-119.969667,13.867,33.099,NaN,NaN
20040111,003805,452107,32.412000,-119.969833,13.869,33.098,NaN,NaN
20040111,003835,452137,32.412000,-119.970167,13.872,33.099,NaN,NaN
20040111,003905,452167,32.412000,-119.970333,13.870,33.099,NaN,NaN
20040111,003935,452197,32.412000,-119.970500,13.863,33.099,NaN,NaN
20040111,004005,452227,32.411833,-119.970833,13.859,33.097,NaN,NaN
20040111,004035,452257,32.411833,-119.971000,13.859,33.097,NaN,NaN
20040111,004105,452287,32.411833,-119.971167,13.860,33.097,NaN,NaN
20040111,004135,452317,32.411833,-119.971500,13.859,33.098,NaN,NaN
20040111,004205,452347,32.411833,-119.971667,13.853,33.097,NaN,NaN
20040111,004235,452377,32.411833,-119.971833,13.851,33.096,NaN,NaN
20040111,004305,452407,32.411833,-119.972000,13.850,33.095,NaN,NaN
20040111,004335,452437,32.411833,-119.972167,13.849,33.095,NaN,NaN
20040111,004405,452467,32.411833,-119.972333,13.849,33.096,NaN,NaN
20040111,004435,452497,32.411833,-119.972667,13.850,33.095,NaN,NaN
20040111,004505,452527,32.411833,-119.972833,13.852,33.097,NaN,NaN
20040111,004535,452557,32.412000,-119.973000,13.849,33.096,NaN,NaN
20040111,004605,452587,32.412000,-119.973167,13.849,33.095,NaN,NaN
20040111,004635,452617,32.412000,-119.973333,13.855,33.096,NaN,NaN
20040111,004705,452647,32.412167,-119.973667,13.862,33.097,NaN,NaN
20040111,004735,452677,32.412167,-119.973833,13.863,33.097,NaN,NaN
20040111,004805,452707,32.412333,-119.974000,13.864,33.097,NaN,NaN
20040111,004835,452737,32.412333,-119.974167,13.870,33.097,NaN,NaN
20040111,004905,452767,32.412500,-119.974500,13.872,33.098,NaN,NaN
20040111,004935,452797,32.412500,-119.974667,13.872,33.098,NaN,NaN
20040111,005005,452827,32.412667,-119.975000,13.871,33.098,NaN,NaN
20040111,005035,452857,32.412667,-119.975167,13.867,33.098,NaN,NaN
20040111,005105,452887,32.412833,-119.975333,13.863,33.098,NaN,NaN
20040111,005135,452917,32.413000,-119.975667,13.864,33.097,NaN,NaN
20040111,005205,452947,32.413167,-119.976000,13.869,33.097,NaN,NaN
20040111,005235,452977,32.413500,-119.976167,13.870,33.097,NaN,NaN
20040111,005305,453007,32.413667,-119.975833,13.870,33.099,NaN,NaN
20040111,005335,453037,32.413833,-119.975167,13.872,33.099,NaN,NaN
20040111,005405,453067,32.414167,-119.974333,13.880,33.099,NaN,NaN
20040111,005435,453097,32.414500,-119.973500,13.889,33.100,NaN,NaN
20040111,005505,453127,32.414833,-119.972500,13.887,33.102,NaN,NaN
20040111,005535,453157,32.415167,-119.971333,13.877,33.102,NaN,NaN
20040111,005605,453187,32.415667,-119.970167,13.869,33.102,NaN,NaN
20040111,005635,453217,32.416167,-119.969000,13.862,33.100,NaN,NaN
20040111,005705,453247,32.416667,-119.967667,13.847,33.098,NaN,NaN
20040111,005735,453277,32.417167,-119.966333,13.832,33.094,NaN,NaN
20040111,005805,453307,32.417667,-119.964833,13.826,33.089,NaN,NaN
20040111,005835,453337,32.418167,-119.963500,13.826,33.087,NaN,NaN
20040111,005905,453367,32.418667,-119.962000,13.813,33.084,NaN,NaN
20040111,005935,453397,32.419333,-119.960500,13.805,33.078,NaN,NaN
20040111,010005,453427,32.419833,-119.959167,13.805,33.076,NaN,NaN
20040111,010035,453457,32.420500,-119.957667,13.806,33.075,NaN,NaN
20040111,010105,453487,32.421167,-119.956167,13.809,33.074,NaN,NaN
20040111,010135,453517,32.421667,-119.954833,13.813,33.072,NaN,NaN
20040111,010205,453547,32.422333,-119.953333,13.818,33.071,NaN,NaN
20040111,010235,453577,32.423000,-119.952000,13.819,33.071,NaN,NaN
20040111,010305,453607,32.423500,-119.950500,13.815,33.072,NaN,NaN
20040111,010335,453637,32.424167,-119.949000,13.817,33.071,NaN,NaN
20040111,010405,453667,32.424833,-119.947667,13.829,33.069,NaN,NaN
20040111,010435,453697,32.425500,-119.946167,13.839,33.069,NaN,NaN
20040111,010505,453727,32.426167,-119.944667,13.852,33.068,NaN,NaN
20040111,010535,453757,32.426667,-119.943333,13.869,33.066,NaN,NaN
20040111,010605,453787,32.427333,-119.941833,13.891,33.059,NaN,NaN
20040111,010635,453817,32.428000,-119.940333,13.907,33.048,NaN,NaN
20040111,010705,453847,32.428667,-119.939000,13.914,33.039,NaN,NaN
20040111,010735,453877,32.429333,-119.937500,13.918,33.032,NaN,NaN
20040111,010805,453907,32.430000,-119.936000,13.919,33.024,NaN,NaN
20040111,010835,453937,32.430500,-119.934667,13.921,33.018,NaN,NaN
20040111,010905,453967,32.431167,-119.933167,13.920,33.012,NaN,NaN
20040111,010935,453997,32.431833,-119.931833,13.924,33.009,NaN,NaN
20040111,011005,454027,32.432500,-119.930333,13.927,33.007,NaN,NaN
20040111,011035,454057,32.433167,-119.928833,13.937,33.001,NaN,NaN
20040111,011105,454087,32.433833,-119.927333,13.951,33.001,NaN,NaN
20040111,011135,454117,32.434500,-119.926000,13.955,32.998,NaN,NaN
20040111,011205,454147,32.435167,-119.924500,13.954,32.995,NaN,NaN
20040111,011235,454177,32.435833,-119.923000,13.957,32.993,NaN,NaN
20040111,011305,454207,32.436500,-119.921667,13.964,32.992,NaN,NaN
20040111,011335,454237,32.437167,-119.920167,13.971,32.991,NaN,NaN
20040111,011405,454267,32.437833,-119.918667,13.995,32.989,NaN,NaN
20040111,011435,454297,32.438500,-119.917167,14.049,32.989,NaN,NaN
20040111,011505,454327,32.439167,-119.915667,14.109,32.997,NaN,NaN
20040111,011535,454357,32.439833,-119.914333,14.128,33.002,NaN,NaN
20040111,011605,454387,32.440333,-119.912833,14.155,33.003,NaN,NaN
20040111,011635,454417,32.441000,-119.911333,14.203,33.003,NaN,NaN
20040111,011705,454447,32.441667,-119.909833,14.289,33.010,NaN,NaN
20040111,011735,454477,32.442333,-119.908333,14.381,33.016,NaN,NaN
20040111,011805,454507,32.443000,-119.906833,14.451,33.023,NaN,NaN
20040111,011835,454537,32.443667,-119.905500,14.496,33.029,NaN,NaN
20040111,011905,454567,32.444333,-119.904000,14.527,33.029,NaN,NaN
20040111,011935,454597,32.445000,-119.902500,14.535,33.032,NaN,NaN
20040111,012005,454627,32.445667,-119.901000,14.525,33.027,NaN,NaN
20040111,012035,454657,32.446333,-119.899500,14.522,33.023,NaN,NaN
20040111,012105,454687,32.447167,-119.898167,14.521,33.020,NaN,NaN
20040111,012135,454717,32.447833,-119.896833,14.513,33.016,NaN,NaN
20040111,012205,454747,32.448667,-119.895500,14.500,33.012,NaN,NaN
20040111,012235,454777,32.449333,-119.894000,14.493,33.009,NaN,NaN
20040111,012305,454807,32.450167,-119.892667,14.485,33.007,NaN,NaN
20040111,012335,454837,32.450833,-119.891333,14.481,33.004,NaN,NaN
20040111,012405,454867,32.451667,-119.889833,14.477,33.002,NaN,NaN
20040111,012435,454897,32.452333,-119.888500,14.471,33.001,NaN,NaN
20040111,012505,454927,32.453167,-119.887167,14.468,32.999,NaN,NaN
20040111,012535,454957,32.453833,-119.885833,14.466,33.000,NaN,NaN
20040111,012605,454987,32.454667,-119.884333,14.465,32.998,NaN,NaN
20040111,012635,455017,32.455333,-119.883000,14.463,32.998,NaN,NaN
20040111,012705,455047,32.456000,-119.881500,14.463,32.998,NaN,NaN
20040111,012735,455077,32.456833,-119.880167,14.464,32.998,NaN,NaN
20040111,012805,455107,32.457500,-119.878833,14.464,32.997,NaN,NaN
20040111,012835,455137,32.458333,-119.877500,14.466,32.998,NaN,NaN
20040111,012905,455167,32.459000,-119.876000,14.468,32.998,NaN,NaN
20040111,012935,455197,32.459667,-119.874667,14.468,32.999,NaN,NaN
20040111,013005,455227,32.460500,-119.873333,14.473,32.998,NaN,NaN
20040111,013035,455257,32.461333,-119.872000,14.485,32.997,NaN,NaN
20040111,013105,455287,32.461833,-119.870500,14.561,32.998,NaN,NaN
20040111,013135,455317,32.462500,-119.869167,14.588,33.000,NaN,NaN
20040111,013205,455347,32.463167,-119.867667,14.579,32.997,NaN,NaN
20040111,013235,455377,32.463667,-119.866167,14.571,32.996,NaN,NaN
20040111,013305,455407,32.464333,-119.864833,14.574,32.993,NaN,NaN
20040111,013335,455437,32.465000,-119.863333,14.576,32.993,NaN,NaN
20040111,013405,455467,32.465667,-119.862000,14.580,32.992,NaN,NaN
20040111,013435,455497,32.466167,-119.860667,14.586,32.990,NaN,NaN
20040111,013505,455527,32.466833,-119.859167,14.594,32.987,NaN,NaN
20040111,013535,455557,32.467500,-119.857833,14.603,32.984,NaN,NaN
20040111,013605,455587,32.468167,-119.856500,14.612,32.982,NaN,NaN
20040111,013635,455617,32.468667,-119.855167,14.614,32.982,NaN,NaN
20040111,013705,455647,32.469333,-119.853833,14.613,32.984,NaN,NaN
20040111,013735,455677,32.470000,-119.852333,14.614,32.984,NaN,NaN
20040111,013805,455707,32.470667,-119.851000,14.613,32.986,NaN,NaN
20040111,013835,455737,32.471500,-119.849667,14.609,32.986,NaN,NaN
20040111,013905,455767,32.472167,-119.848333,14.599,32.987,NaN,NaN
20040111,013935,455797,32.472833,-119.847000,14.588,32.987,NaN,NaN
20040111,014005,455827,32.473500,-119.845667,14.581,32.985,NaN,NaN
20040111,014035,455857,32.474167,-119.844167,14.570,32.987,NaN,NaN
20040111,014105,455887,32.474833,-119.842833,14.577,32.982,NaN,NaN
20040111,014135,455917,32.475500,-119.841500,14.588,32.981,NaN,NaN
20040111,014205,455947,32.476167,-119.840167,14.590,32.980,NaN,NaN
20040111,014235,455977,32.476833,-119.838833,14.589,32.977,NaN,NaN
20040111,014305,456007,32.477500,-119.837333,14.593,32.974,NaN,NaN
20040111,014335,456037,32.478167,-119.836000,14.594,32.972,NaN,NaN
20040111,014405,456067,32.478833,-119.834667,14.598,32.970,NaN,NaN
20040111,014435,456097,32.479500,-119.833333,14.600,32.970,NaN,NaN
20040111,014505,456127,32.480167,-119.832000,14.600,32.970,NaN,NaN
20040111,014535,456157,32.480833,-119.830667,14.595,32.972,NaN,NaN
20040111,014605,456187,32.481500,-119.829333,14.582,32.972,NaN,NaN
20040111,014635,456217,32.482167,-119.828000,14.567,32.973,NaN,NaN
20040111,014705,456247,32.483000,-119.826667,14.559,32.972,NaN,NaN
20040111,014735,456277,32.483667,-119.825167,14.549,32.974,NaN,NaN
20040111,014805,456307,32.484333,-119.823833,14.549,32.974,NaN,NaN
20040111,014835,456337,32.485000,-119.822500,14.550,32.974,NaN,NaN
20040111,014905,456367,32.485667,-119.821333,14.548,32.975,NaN,NaN
20040111,014935,456397,32.486333,-119.820000,14.539,32.976,NaN,NaN
20040111,015005,456427,32.487000,-119.818667,14.530,32.977,NaN,NaN
20040111,015035,456457,32.487667,-119.817333,14.527,32.977,NaN,NaN
20040111,015105,456487,32.488500,-119.816000,14.528,32.978,NaN,NaN
20040111,015135,456517,32.489167,-119.814667,14.527,32.978,NaN,NaN
20040111,015205,456547,32.489667,-119.813333,14.519,32.979,NaN,NaN
20040111,015235,456577,32.490500,-119.812000,14.520,32.977,NaN,NaN
20040111,015305,456607,32.491000,-119.810667,14.532,32.975,NaN,NaN
20040111,015335,456637,32.491833,-119.809333,14.546,32.975,NaN,NaN
20040111,015405,456667,32.492500,-119.808000,14.554,32.976,NaN,NaN
20040111,015435,456697,32.493000,-119.806667,14.559,32.976,NaN,NaN
20040111,015505,456727,32.493833,-119.805500,14.559,32.977,NaN,NaN
20040111,015535,456757,32.494500,-119.804167,14.557,32.977,NaN,NaN
20040111,015605,456787,32.495167,-119.802833,14.558,32.976,NaN,NaN
20040111,015635,456817,32.495833,-119.801500,14.562,32.975,NaN,NaN
20040111,015705,456847,32.496500,-119.800167,14.566,32.975,NaN,NaN
20040111,015735,456877,32.497167,-119.799000,14.568,32.975,NaN,NaN
20040111,015805,456907,32.497833,-119.797667,14.568,32.976,NaN,NaN
20040111,015835,456937,32.498500,-119.796333,14.567,32.976,NaN,NaN
20040111,015905,456967,32.499167,-119.795000,14.566,32.975,NaN,NaN
20040111,015935,456997,32.499833,-119.793833,14.565,32.975,NaN,NaN
20040111,020005,457027,32.500667,-119.792500,14.565,32.975,NaN,NaN
20040111,020035,457057,32.501333,-119.791167,14.561,32.976,NaN,NaN
20040111,020105,457087,32.502000,-119.789833,14.561,32.975,NaN,NaN
20040111,020135,457117,32.502667,-119.788500,14.564,32.974,NaN,NaN
20040111,020205,457147,32.503333,-119.787333,14.566,32.974,NaN,NaN
20040111,020235,457177,32.504000,-119.786000,14.567,32.974,NaN,NaN
20040111,020305,457207,32.504667,-119.784667,14.569,32.973,NaN,NaN
20040111,020335,457237,32.505333,-119.783333,14.569,32.974,NaN,NaN
20040111,020405,457267,32.506000,-119.782000,14.574,32.973,NaN,NaN
20040111,020435,457297,32.506833,-119.780833,14.578,32.974,NaN,NaN
20040111,020505,457327,32.507500,-119.779500,14.579,32.974,NaN,NaN
20040111,020535,457357,32.508167,-119.778333,14.581,32.974,NaN,NaN
20040111,020605,457387,32.508833,-119.777000,14.582,32.974,NaN,NaN
20040111,020635,457417,32.509500,-119.775667,14.582,32.975,NaN,NaN
20040111,020705,457447,32.510167,-119.774333,14.583,32.974,NaN,NaN
20040111,020735,457477,32.510833,-119.773167,14.583,32.974,NaN,NaN
20040111,020805,457507,32.511500,-119.771833,14.576,32.974,NaN,NaN
20040111,020835,457537,32.512333,-119.770500,14.567,32.975,NaN,NaN
20040111,020905,457567,32.513000,-119.769167,14.561,32.973,NaN,NaN
20040111,020935,457597,32.513667,-119.767833,14.558,32.973,NaN,NaN
20040111,021005,457627,32.514333,-119.766500,14.554,32.972,NaN,NaN
20040111,021035,457657,32.515000,-119.765167,14.547,32.972,NaN,NaN
20040111,021105,457687,32.515667,-119.764000,14.545,32.969,NaN,NaN
20040111,021135,457717,32.516333,-119.762667,14.541,32.970,NaN,NaN
20040111,021205,457747,32.517167,-119.761333,14.528,32.972,NaN,NaN
20040111,021235,457777,32.517833,-119.760000,14.515,32.971,NaN,NaN
20040111,021305,457807,32.518500,-119.758667,14.507,32.970,NaN,NaN
20040111,021335,457837,32.519167,-119.757333,14.496,32.970,NaN,NaN
20040111,021405,457867,32.519833,-119.756000,14.493,32.968,NaN,NaN
20040111,021435,457897,32.520333,-119.754667,14.489,32.968,NaN,NaN
20040111,021505,457927,32.521000,-119.753333,14.478,32.968,NaN,NaN
20040111,021535,457957,32.521667,-119.752000,14.465,32.970,NaN,NaN
20040111,021605,457987,32.522333,-119.750667,14.472,32.971,NaN,NaN
20040111,021635,458017,32.523000,-119.749333,14.477,32.973,NaN,NaN
20040111,021705,458047,32.523500,-119.748000,14.501,32.980,NaN,NaN
20040111,021735,458077,32.524167,-119.746500,14.544,32.992,NaN,NaN
20040111,021805,458107,32.524833,-119.745167,14.629,33.006,NaN,NaN
20040111,021835,458137,32.525500,-119.743833,14.681,33.027,NaN,NaN
20040111,021905,458167,32.526000,-119.742333,14.687,33.036,NaN,NaN
20040111,021935,458197,32.526667,-119.741000,14.684,33.038,NaN,NaN
20040111,022005,458227,32.527333,-119.739667,14.675,33.039,NaN,NaN
20040111,022035,458257,32.528000,-119.738167,14.677,33.039,NaN,NaN
20040111,022105,458287,32.528500,-119.736833,14.677,33.040,NaN,NaN
20040111,022135,458317,32.529167,-119.735500,14.685,33.040,NaN,NaN
20040111,022205,458347,32.529833,-119.734000,14.696,33.045,NaN,NaN
20040111,022235,458377,32.530500,-119.732667,14.714,33.048,NaN,NaN
20040111,022305,458407,32.531167,-119.731333,14.765,33.047,NaN,NaN
20040111,022335,458437,32.531667,-119.729833,14.796,33.048,NaN,NaN
20040111,022405,458467,32.532333,-119.728500,14.802,33.048,NaN,NaN
20040111,022435,458497,32.532833,-119.727000,14.803,33.047,NaN,NaN
20040111,022505,458527,32.533500,-119.725667,14.799,33.048,NaN,NaN
20040111,022535,458557,32.534167,-119.724167,14.802,33.036,NaN,NaN
20040111,022605,458587,32.534833,-119.722833,14.807,33.030,NaN,NaN
20040111,022635,458617,32.535333,-119.721500,14.809,33.030,NaN,NaN
20040111,022705,458647,32.536000,-119.720000,14.807,33.032,NaN,NaN
20040111,022735,458677,32.536667,-119.718667,14.801,33.035,NaN,NaN
20040111,022805,458707,32.537167,-119.717333,14.800,33.026,NaN,NaN
20040111,022835,458737,32.537833,-119.715833,14.792,33.026,NaN,NaN
20040111,022905,458767,32.538333,-119.714500,14.783,33.026,NaN,NaN
20040111,022935,458797,32.539000,-119.713000,14.773,33.022,NaN,NaN
20040111,023005,458827,32.539667,-119.711667,14.761,33.023,NaN,NaN
20040111,023035,458857,32.540333,-119.710167,14.750,33.023,NaN,NaN
20040111,023105,458887,32.540833,-119.708833,14.741,33.022,NaN,NaN
20040111,023135,458917,32.541500,-119.707333,14.732,33.024,NaN,NaN
20040111,023205,458947,32.542000,-119.706000,14.724,33.028,NaN,NaN
20040111,023235,458977,32.542667,-119.704500,14.716,33.031,NaN,NaN
20040111,023305,459007,32.543333,-119.703167,14.710,33.034,NaN,NaN
20040111,023335,459037,32.544000,-119.701667,14.703,33.036,NaN,NaN
20040111,023405,459067,32.544667,-119.700333,14.698,33.035,NaN,NaN
20040111,023435,459097,32.545333,-119.698833,14.691,33.037,NaN,NaN
20040111,023505,459127,32.546000,-119.697500,14.688,33.037,NaN,NaN
20040111,023535,459157,32.546667,-119.696000,14.685,33.039,NaN,NaN
20040111,023605,459187,32.547333,-119.694667,14.682,33.041,NaN,NaN
20040111,023635,459217,32.548167,-119.693333,14.678,33.042,NaN,NaN
20040111,023705,459247,32.548833,-119.691833,14.676,33.043,NaN,NaN
20040111,023735,459277,32.549500,-119.690500,14.677,33.045,NaN,NaN
20040111,023805,459307,32.550167,-119.689000,14.678,33.045,NaN,NaN
20040111,023835,459337,32.550833,-119.687667,14.678,33.045,NaN,NaN
20040111,023905,459367,32.551667,-119.686167,14.680,33.048,NaN,NaN
20040111,023935,459397,32.552333,-119.684833,14.686,33.050,NaN,NaN
20040111,024005,459427,32.553000,-119.683333,14.698,33.053,NaN,NaN
20040111,024035,459457,32.553667,-119.682000,14.711,33.057,NaN,NaN
20040111,024105,459487,32.554333,-119.680667,14.721,33.059,NaN,NaN
20040111,024135,459517,32.555000,-119.679333,14.724,33.060,NaN,NaN
20040111,024205,459547,32.555833,-119.677833,14.722,33.058,NaN,NaN
20040111,024235,459577,32.556500,-119.676500,14.752,33.039,NaN,NaN
20040111,024305,459607,32.557167,-119.675167,14.773,33.027,NaN,NaN
20040111,024335,459637,32.557833,-119.673833,14.778,33.024,NaN,NaN
20040111,024405,459667,32.558500,-119.672333,14.778,33.024,NaN,NaN
20040111,024435,459697,32.559333,-119.671000,14.762,33.020,NaN,NaN
20040111,024505,459727,32.560000,-119.669667,14.735,33.009,NaN,NaN
20040111,024535,459757,32.560667,-119.668333,14.708,33.002,NaN,NaN
20040111,024605,459787,32.561333,-119.667000,14.685,32.994,NaN,NaN
20040111,024635,459817,32.562000,-119.665667,14.662,32.987,NaN,NaN
20040111,024705,459847,32.562667,-119.664167,14.647,32.985,NaN,NaN
20040111,024735,459877,32.563333,-119.662833,14.627,32.979,NaN,NaN
20040111,024805,459907,32.564167,-119.661500,14.610,32.973,NaN,NaN
20040111,024835,459937,32.564833,-119.660167,14.595,32.971,NaN,NaN
20040111,024905,459967,32.565500,-119.658667,14.591,32.969,NaN,NaN
20040111,024935,459997,32.566167,-119.657333,14.595,32.967,NaN,NaN
20040111,025005,460027,32.566833,-119.656000,14.597,32.967,NaN,NaN
20040111,025035,460057,32.567500,-119.654500,14.594,32.968,NaN,NaN
20040111,025105,460087,32.568167,-119.653167,14.596,32.968,NaN,NaN
20040111,025135,460117,32.569000,-119.651833,14.599,32.969,NaN,NaN
20040111,025205,460147,32.569667,-119.650500,14.601,32.969,NaN,NaN
20040111,025235,460177,32.570333,-119.649167,14.600,32.969,NaN,NaN
20040111,025305,460207,32.571000,-119.647667,14.602,32.969,NaN,NaN
20040111,025335,460237,32.571833,-119.646333,14.602,32.969,NaN,NaN
20040111,025405,460267,32.572500,-119.645000,14.599,32.970,NaN,NaN
20040111,025435,460297,32.573167,-119.643500,14.593,32.970,NaN,NaN
20040111,025505,460327,32.573833,-119.642167,14.591,32.970,NaN,NaN
20040111,025535,460357,32.574667,-119.640667,14.587,32.970,NaN,NaN